Home   Weather   Vevay   Past weeks

Flag for USA Past Weather in Vevay, Indiana, USA — Yesterday and Last 2 Weeks

Now
27 °F

Sunny.


Feels Like: 22 °F
Forecast: 25 / 49 °F
Wind: 5 mph from Southwest

Location: Cincinnati / Northern Kentucky International Airport

Current Time: Feb 26, 2017 at 9:49:04 am

Latest Report: Feb 26, 2017 at 8:52 am


Visibility: 10 mi

Pressure: 30.22 "Hg

Humidity: 69%

Dew Point: 18 °F

Location of VevayLocation

Past Weather in Vevay — Graph

°F

Vevay Temperature Yesterday

Maximum temperature yesterday: 50 °F (at 12:52 am)
Minimum temperature yesterday: 28 °F (at 10:52 pm)
Average temperature yesterday: 37 °F

High & Low Weather Summary for the Past Weeks

 TemperatureHumidityPressure
High77 °F (Feb 24, 2:52 pm)100% (Feb 11, 11:06 pm)30.37 "Hg (Feb 11, 11:06 pm)
Low21 °F (Feb 26, 6:52 am)27% (Feb 13, 4:52 pm)29.50 "Hg (Feb 24, 6:52 pm)
Average49 °F70%29.92 "Hg
* Reported Feb 11 7:52 am — Feb 26 7:52 am, Vevay, Weather by CustomWeather, © 2017

Note: Actual official high and low records may vary slightly from our data, if they occured in-between our weather recording intervals... More about our weather records

Advertising

Vevay Weather History for the Previous 24 Hours

Scroll right to see more
 ConditionsComfort  
Time TempWeatherWind HumidityBarometerVisibility
7:52 am
Sun, Feb 26
21 °FSunny.5 mph85%30.21 "Hg10 mi
6:52 am21 °FClear.5 mph78%30.18 "Hg10 mi
5:52 am23 °FClear.5 mph72%30.17 "Hg10 mi
4:52 am23 °FClear.8 mph72%30.14 "Hg10 mi
3:52 am23 °FClear.7 mph74%30.13 "Hg10 mi
2:52 am25 °FClear.7 mph69%30.11 "Hg10 mi
1:52 am25 °FClear.7 mph72%30.11 "Hg10 mi
12:52 am27 °FClear.5 mph66%30.08 "Hg10 mi
11:52 pm
Sat, Feb 25
28 °FClear.6 mph64%30.08 "Hg10 mi
10:52 pm28 °FPassing clouds.6 mph64%30.07 "Hg10 mi
9:52 pm29 °FPassing clouds.5 mph58%30.06 "Hg10 mi
8:52 pm30 °FMostly cloudy.8 mph56%30.06 "Hg10 mi
7:52 pm32 °FPassing clouds.18 mph54%30.03 "Hg10 mi
6:52 pm31 °FMostly cloudy.9 mph59%30.01 "Hg10 mi
5:52 pm32 °FMostly cloudy.10 mph59%30.00 "Hg10 mi
4:52 pm32 °FMostly cloudy.18 mph56%29.98 "Hg10 mi
3:52 pm33 °FMostly cloudy.20 mph54%29.95 "Hg10 mi
2:52 pm33 °FMostly cloudy.23 mph56%29.92 "Hg10 mi
2:27 pm33 °FMostly cloudy.15 mph56%29.91 "Hg10 mi
1:52 pm32 °FMostly cloudy.20 mph59%29.90 "Hg10 mi
12:52 pm31 °FMostly cloudy.18 mph69%29.89 "Hg10 mi
11:52 am34 °FMostly cloudy.15 mph70%29.86 "Hg10 mi
10:52 am34 °FCloudy.20 mph70%29.83 "Hg9 mi
9:52 am34 °FLight snow. Mostly cloudy.13 mph70%29.80 "Hg10 mi
Weather by CustomWeather, © 2017

See weather overviewHow to use our weather pages

LIVE ANNULAR SOLAR ECLIPSE – Watch the eclipse as it happens